Location: Unspecified
(29.9680°N, 0.0000°E)
Time: 14:34:48
(UTC+00:00)

A-11 Canister half - Pass Details

Date: 22 June 2019
Orbit: 1526 x 1683 km, 47.3° (Epoch: 15 July)

Event Time Altitude Azimuth Distance (km) Brightness Sun altitude
Rises 02:39:11 0° 212° (SSW) 4,810 - -24.6°
Reaches altitude 10° 02:42:23 10° 209° (SSW) 3,804 - -24.1°
Exits shadow 02:47:12 32° 195° (SSW) 2,439 9.5 -23.5°
Maximum altitude 02:51:43 57° 133° (SE) 1,795 9.3 -22.8°
Drops below altitude 10° 03:00:48 10° 58° (ENE) 3,711 12.1 -21.5°
Sets 03:03:53 0° 54° (NE) 4,686 13.0 -21.0°
